| time (UTC) | temp C | wind direction | speed KPH | gust KPH | rain 1hr cm | rain 24hr cm | rain mn cm | humidity % | barometer mb |
| 20260509071604 | 13 | 127 | 0.0 | 1.6 | 0.00 | 0.00 | 0.00 | 75 | 1014.6 |
| 20260509071102 | 13 | 122 | 0.0 | 3.2 | 0.00 | 0.00 | 0.00 | 75 | 1014.7 |
| 20260509070559 | 13 | 131 | 1.6 | 4.8 | 0.00 | 0.00 | 0.00 | 76 | 1014.3 |
| 20260509070055 | 13 | 151 | 0.0 | 1.6 | 0.00 | 0.00 | 0.00 | 76 | 1014.5 |
| 20260509065551 | 12 | 149 | 0.0 | 0.0 | 0.00 | 0.00 | 0.00 | 77 | 1014.7 |
| 20260509065047 | 13 | 196 | 1.6 | 1.6 | 0.00 | 0.00 | 0.00 | 77 | 1014.7 |
| 20260509064545 | 13 | 136 | 0.0 | 3.2 | 0.00 | 0.00 | 0.00 | 77 | 1014.7 |
| 20260509064043 | 13 | 159 | 0.0 | 0.0 | 0.00 | 0.00 | 0.00 | 76 | 1015.0 |
| 20260509063538 | 13 | 171 | 0.0 | 1.6 | 0.00 | 0.00 | 0.00 | 76 | 1014.9 |
| 20260509063036 | 13 | 150 | 1.6 | 3.2 | 0.00 | 0.00 | 0.00 | 76 | 1015.2 |
| 20260509062533 | 13 | 182 | 0.0 | 3.2 | 0.00 | 0.00 | 0.00 | 76 | 1015.3 |
| 20260509062030 | 13 | 195 | 1.6 | 3.2 | 0.00 | 0.00 | 0.00 | 76 | 1015.5 |
| 20260509061527 | 13 | 152 | 0.0 | 1.6 | 0.00 | 0.00 | 0.00 | 75 | 1015.4 |
| 20260509061024 | 13 | 173 | 1.6 | 4.8 | 0.00 | 0.00 | 0.00 | 74 | 1015.6 |
| 20260509060522 | 12 | 164 | 1.6 | 1.6 | 0.00 | 0.00 | 0.00 | 76 | 1015.7 |
| 20260509060017 | 13 | 153 | 0.0 | 1.6 | 0.00 | 0.00 | 0.00 | 74 | 1015.7 |
| 20260509055513 | 12 | 161 | 0.0 | 0.0 | 0.00 | 0.00 | 0.00 | 74 | 1015.6 |
| 20260509055009 | 12 | 141 | 1.6 | 3.2 | 0.00 | 0.00 | 0.00 | 73 | 1015.6 |
| 20260509054506 | 13 | 166 | 0.0 | 1.6 | 0.00 | 0.00 | 0.00 | 72 | 1015.6 |
| 20260509054004 | 12 | 135 | 0.0 | 1.6 | 0.00 | 0.00 | 0.00 | 73 | 1015.6 |
| 20260509053502 | 12 | 141 | 0.0 | 1.6 | 0.00 | 0.00 | 0.00 | 72 | 1015.6 |
| 20260509052959 | 12 | 151 | 0.0 | 0.0 | 0.00 | 0.00 | 0.00 | 72 | 1015.8 |
| 20260509052456 | 12 | 154 | 0.0 | 1.6 | 0.00 | 0.00 | 0.00 | 71 | 1015.5 |
| 20260509051954 | 12 | 144 | 0.0 | 0.0 | 0.00 | 0.00 | 0.00 | 71 | 1015.4 |
| 20260509051452 | 12 | 154 | 0.0 | 0.0 | 0.00 | 0.00 | 0.00 | 71 | 1015.4 |
| 20260509050949 | 12 | 154 | 0.0 | 0.0 | 0.00 | 0.00 | 0.00 | 71 | 1015.3 |
| 20260509050445 | 12 | 151 | 0.0 | 1.6 | 0.00 | 0.00 | 0.00 | 71 | 1015.6 |
| 20260509045942 | 12 | 152 | 0.0 | 0.0 | 0.00 | 0.00 | 0.00 | 72 | 1015.3 |
| 20260509045439 | 11 | 153 | 0.0 | 0.0 | 0.00 | 0.00 | 0.00 | 72 | 1015.4 |
| 20260509044936 | 12 | 149 | 0.0 | 0.0 | 0.00 | 0.00 | 0.00 | 72 | 1015.3 |
| 20260509044434 | 12 | 150 | 0.0 | 0.0 | 0.00 | 0.00 | 0.00 | 72 | 1015.2 |
| 20260509043931 | 11 | 136 | 0.0 | 0.0 | 0.00 | 0.00 | 0.00 | 73 | 1015.4 |
| 20260509043426 | 11 | 149 | 0.0 | 0.0 | 0.00 | 0.00 | 0.00 | 72 | 1015.2 |
| 20260509042922 | 11 | 141 | 0.0 | 0.0 | 0.00 | 0.00 | 0.00 | 72 | 1015.4 |
| 20260509042420 | 11 | 145 | 0.0 | 0.0 | 0.00 | 0.00 | 0.00 | 72 | 1015.3 |
| 20260509041915 | 11 | 141 | 0.0 | 0.0 | 0.00 | 0.00 | 0.00 | 71 | 1015.4 |
| 20260509041413 | 11 | 151 | 0.0 | 0.0 | 0.00 | 0.00 | 0.00 | 72 | 1015.3 |
| 20260509040911 | 11 | 136 | 0.0 | 0.0 | 0.00 | 0.00 | 0.00 | 71 | 1015.5 |
| 20260509040408 | 12 | 136 | 0.0 | 0.0 | 0.00 | 0.00 | 0.00 | 70 | 1015.5 |
| 20260509035905 | 12 | 136 | 0.0 | 0.0 | 0.00 | 0.00 | 0.00 | 70 | 1015.4 |
| 20260509035402 | 12 | 141 | 0.0 | 0.0 | 0.00 | 0.00 | 0.00 | 69 | 1015.5 |
| 20260509034858 | 12 | 141 | 0.0 | 0.0 | 0.00 | 0.00 | 0.00 | 68 | 1015.5 |
| 20260509034356 | 12 | 136 | 0.0 | 0.0 | 0.00 | 0.00 | 0.00 | 69 | 1015.5 |
| 20260509033853 | 12 | 136 | 0.0 | 0.0 | 0.00 | 0.00 | 0.00 | 67 | 1015.7 |
| 20260509033350 | 12 | 145 | 0.0 | 0.0 | 0.00 | 0.00 | 0.00 | 66 | 1015.7 |
| 20260509032846 | 12 | 141 | 0.0 | 0.0 | 0.00 | 0.00 | 0.00 | 65 | 1015.8 |
| 20260509032343 | 13 | 141 | 0.0 | 0.0 | 0.00 | 0.00 | 0.00 | 64 | 1015.6 |
| 20260509031842 | 13 | 136 | 0.0 | 0.0 | 0.00 | 0.00 | 0.00 | 63 | 1015.8 |
| 20260509031333 | 13 | 149 | 0.0 | 0.0 | 0.00 | 0.00 | 0.00 | 61 | 1015.6 |
| 20260509030831 | 13 | 141 | 0.0 | 0.0 | 0.00 | 0.00 | 0.00 | 60 | 1015.5 |
| 20260509030328 | 13 | 163 | 0.0 | 0.0 | 0.00 | 0.00 | 0.00 | 61 | 1015.5 |
| 20260509025825 | 13 | 141 | 0.0 | 0.0 | 0.00 | 0.00 | 0.00 | 59 | 1015.5 |
| 20260509025320 | 13 | 156 | 0.0 | 0.0 | 0.00 | 0.00 | 0.00 | 59 | 1015.7 |
| 20260509024816 | 13 | 145 | 0.0 | 0.0 | 0.00 | 0.00 | 0.00 | 58 | 1015.6 |
| 20260509024312 | 13 | 117 | 0.0 | 0.0 | 0.00 | 0.00 | 0.00 | 57 | 1015.8 |
| 20260509023810 | 14 | 132 | 0.0 | 0.0 | 0.00 | 0.00 | 0.00 | 55 | 1015.7 |
| 20260509023307 | 13 | 136 | 0.0 | 1.6 | 0.00 | 0.00 | 0.00 | 56 | 1015.7 |
| 20260509022803 | 13 | 136 | 0.0 | 0.0 | 0.00 | 0.00 | 0.00 | 55 | 1015.4 |
| 20260509022301 | 13 | 149 | 0.0 | 1.6 | 0.00 | 0.00 | 0.00 | 54 | 1015.8 |
| 20260509021757 | 13 | 155 | 0.0 | 1.6 | 0.00 | 0.00 | 0.00 | 55 | 1015.7 |
| 20260509021255 | 13 | 145 | 0.0 | 0.0 | 0.00 | 0.00 | 0.00 | 54 | 1015.8 |
| 20260509020752 | 13 | 151 | 0.0 | 0.0 | 0.00 | 0.00 | 0.00 | 54 | 1016.0 |
| 20260509020250 | 13 | 152 | 0.0 | 0.0 | 0.00 | 0.00 | 0.00 | 52 | 1015.6 |
| 20260509015747 | 13 | 151 | 0.0 | 0.0 | 0.00 | 0.00 | 0.00 | 52 | 1015.5 |
| 20260509015245 | 14 | 151 | 0.0 | 0.0 | 0.00 | 0.00 | 0.00 | 51 | 1015.3 |
| 20260509014741 | 14 | 141 | 0.0 | 0.0 | 0.00 | 0.00 | 0.00 | 51 | 1015.5 |
| 20260509014239 | 15 | 149 | 0.0 | 0.0 | 0.00 | 0.00 | 0.00 | 51 | 1015.4 |
| 20260509013735 | 15 | 152 | 0.0 | 0.0 | 0.00 | 0.00 | 0.00 | 50 | 1015.5 |
| 20260509013231 | 15 | 153 | 0.0 | 0.0 | 0.00 | 0.00 | 0.00 | 48 | 1015.3 |
| 20260509012728 | 15 | 153 | 0.0 | 0.0 | 0.00 | 0.00 | 0.00 | 48 | 1015.4 |
| 20260509012224 | 15 | 153 | 0.0 | 0.0 | 0.00 | 0.00 | 0.00 | 48 | 1015.2 |
| 20260509011722 | 15 | 151 | 0.0 | 0.0 | 0.00 | 0.00 | 0.00 | 49 | 1015.1 |
| 20260509011220 | 16 | 150 | 0.0 | 0.0 | 0.00 | 0.00 | 0.00 | 49 | 1015.1 |
| 20260509010717 | 15 | 144 | 1.6 | 1.6 | 0.00 | 0.00 | 0.00 | 49 | 1015.2 |
| 20260509010213 | 16 | 150 | 0.0 | 0.0 | 0.00 | 0.00 | 0.00 | 49 | 1015.1 |
| 20260509005711 | 16 | 150 | 0.0 | 0.0 | 0.00 | 0.00 | 0.00 | 49 | 1015.3 |
| 20260509005208 | 16 | 151 | 0.0 | 0.0 | 0.00 | 0.00 | 0.00 | 49 | 1015.2 |
| 20260509004702 | 16 | 150 | 0.0 | 0.0 | 0.00 | 0.00 | 0.00 | 48 | 1015.2 |
| 20260509004200 | 17 | 153 | 0.0 | 0.0 | 0.00 | 0.00 | 0.00 | 47 | 1015.0 |
| 20260509003658 | 17 | 150 | 0.0 | 0.0 | 0.00 | 0.00 | 0.00 | 44 | 1015.2 |
| 20260509003156 | 17 | 150 | 0.0 | 0.0 | 0.00 | 0.00 | 0.00 | 44 | 1015.0 |
| 20260509002653 | 17 | 150 | 0.0 | 1.6 | 0.00 | 0.00 | 0.00 | 44 | 1015.0 |
| 20260509002150 | 18 | 151 | 0.0 | 0.0 | 0.00 | 0.00 | 0.00 | 44 | 1014.9 |
| 20260509001648 | 18 | 242 | 0.0 | 1.6 | 0.00 | 0.00 | 0.00 | 42 | 1015.0 |
| 20260509001143 | 20 | 132 | 0.0 | 1.6 | 0.00 | 0.00 | 0.00 | 37 | 1014.8 |
| 20260509000642 | 20 | 132 | 0.0 | 1.6 | 0.00 | 0.00 | 0.00 | 37 | 1014.9 |
| 20260509000138 | 20 | 132 | 0.0 | 1.6 | 0.00 | 0.00 | 0.00 | 37 | 1014.8 |
| 20260508235636 | 20 | 132 | 0.0 | 1.6 | 0.00 | 0.00 | 0.00 | 37 | 1014.7 |
| 20260508235132 | 20 | 132 | 0.0 | 1.6 | 0.00 | 0.00 | 0.00 | 37 | 1014.6 |
| 20260508234629 | 20 | 132 | 0.0 | 1.6 | 0.00 | 0.00 | 0.00 | 37 | 1014.4 |
| 20260508234126 | 20 | 132 | 0.0 | 1.6 | 0.00 | 0.00 | 0.00 | 37 | 1014.5 |
| 20260508233625 | 20 | 132 | 0.0 | 1.6 | 0.00 | 0.00 | 0.00 | 37 | 1014.7 |
| 20260508233122 | 20 | 153 | 0.0 | 1.6 | 0.00 | 0.00 | 0.00 | 37 | 1014.6 |
| 20260508232619 | 20 | 227 | 1.6 | 4.8 | 0.00 | 0.00 | 0.00 | 38 | 1014.3 |
| 20260508232116 | 20 | 164 | 1.6 | 1.6 | 0.00 | 0.00 | 0.00 | 35 | 1014.6 |
| 20260508231614 | 20 | 164 | 1.6 | 1.6 | 0.00 | 0.00 | 0.00 | 35 | 1014.5 |
| 20260508231110 | 20 | 167 | 3.2 | 3.2 | 0.00 | 0.00 | 0.00 | 36 | 1014.5 |
| 20260508230607 | 20 | 187 | 1.6 | 1.6 | 0.00 | 0.00 | 0.00 | 37 | 1014.3 |
| 20260508230103 | 20 | 167 | 1.6 | 1.6 | 0.00 | 0.00 | 0.00 | 35 | 1014.4 |
| 20260508225601 | 20 | 150 | 4.8 | 4.8 | 0.00 | 0.00 | 0.00 | 34 | 1014.3 |
| 20260508225057 | 20 | 139 | 0.0 | 1.6 | 0.00 | 0.00 | 0.00 | 36 | 1014.5 |
| 20260508224556 | 20 | 162 | 0.0 | 3.2 | 0.00 | 0.00 | 0.00 | 38 | 1014.4 |
| 20260508224052 | 20 | 140 | 0.0 | 1.6 | 0.00 | 0.00 | 0.00 | 36 | 1014.4 |
| 20260508223550 | 20 | 168 | 1.6 | 1.6 | 0.00 | 0.00 | 0.00 | 37 | 1014.5 |
| 20260508223047 | 20 | 168 | 1.6 | 1.6 | 0.00 | 0.00 | 0.00 | 35 | 1014.4 |
| 20260508222545 | 20 | 168 | 1.6 | 1.6 | 0.00 | 0.00 | 0.00 | 36 | 1014.4 |
| 20260508222041 | 21 | 176 | 1.6 | 3.2 | 0.00 | 0.00 | 0.00 | 36 | 1014.7 |
| 20260508221538 | 21 | 167 | 0.0 | 3.2 | 0.00 | 0.00 | 0.00 | 36 | 1014.6 |
| 20260508221033 | 21 | 173 | 0.0 | 6.4 | 0.00 | 0.00 | 0.00 | 34 | 1014.7 |
| 20260508220531 | 21 | 155 | 0.0 | 1.6 | 0.00 | 0.00 | 0.00 | 33 | 1014.7 |
| 20260508220027 | 21 | 147 | 3.2 | 9.7 | 0.00 | 0.00 | 0.00 | 33 | 1014.7 |
| 20260508215524 | 21 | 144 | 3.2 | 4.8 | 0.00 | 0.00 | 0.00 | 33 | 1014.7 |
| 20260508215020 | 21 | 186 | 0.0 | 1.6 | 0.00 | 0.00 | 0.00 | 34 | 1014.6 |
| 20260508214518 | 22 | 153 | 3.2 | 12.9 | 0.00 | 0.00 | 0.00 | 32 | 1014.7 |
| 20260508214014 | 22 | 164 | 1.6 | 3.2 | 0.00 | 0.00 | 0.00 | 31 | 1014.5 |
| 20260508213512 | 23 | 144 | 0.0 | 1.6 | 0.00 | 0.00 | 0.00 | 30 | 1014.8 |
| 20260508213007 | 23 | 204 | 1.6 | 3.2 | 0.00 | 0.00 | 0.00 | 29 | 1014.8 |
| 20260508212504 | 23 | 162 | 1.6 | 3.2 | 0.00 | 0.00 | 0.00 | 30 | 1014.7 |
| 20260508212000 | 22 | 129 | 3.2 | 4.8 | 0.00 | 0.00 | 0.00 | 31 | 1014.5 |
| 20260508211455 | 23 | 163 | 0.0 | 3.2 | 0.00 | 0.00 | 0.00 | 31 | 1014.5 |
| 20260508210953 | 23 | 153 | 1.6 | 9.7 | 0.00 | 0.00 | 0.00 | 31 | 1014.5 |
| 20260508210449 | 23 | 176 | 1.6 | 3.2 | 0.00 | 0.00 | 0.00 | 30 | 1014.7 |
| 20260508205945 | 22 | 157 | 1.6 | 4.8 | 0.00 | 0.00 | 0.00 | 32 | 1014.6 |
| 20260508205443 | 22 | 188 | 1.6 | 3.2 | 0.00 | 0.00 | 0.00 | 31 | 1014.6 |
| 20260508204939 | 22 | 177 | 0.0 | 3.2 | 0.00 | 0.00 | 0.00 | 31 | 1014.8 |
| 20260508204437 | 22 | 137 | 1.6 | 4.8 | 0.00 | 0.00 | 0.00 | 31 | 1014.9 |
| 20260508203931 | 23 | 182 | 3.2 | 6.4 | 0.00 | 0.00 | 0.00 | 31 | 1014.9 |
| 20260508203428 | 23 | 127 | 0.0 | 1.6 | 0.00 | 0.00 | 0.00 | 30 | 1014.8 |
| 20260508202924 | 23 | 187 | 1.6 | 9.7 | 0.00 | 0.00 | 0.00 | 31 | 1015.0 |
| 20260508202422 | 23 | 123 | 1.6 | 4.8 | 0.00 | 0.00 | 0.00 | 31 | 1015.0 |
| 20260508201918 | 22 | 165 | 1.6 | 3.2 | 0.00 | 0.00 | 0.00 | 32 | 1015.1 |
| 20260508201415 | 22 | 150 | 4.8 | 6.4 | 0.00 | 0.00 | 0.00 | 31 | 1015.1 |
| 20260508200912 | 22 | 171 | 1.6 | 1.6 | 0.00 | 0.00 | 0.00 | 32 | 1015.0 |
| 20260508200409 | 22 | 190 | 3.2 | 14.5 | 0.00 | 0.00 | 0.00 | 31 | 1015.1 |
| 20260508195904 | 22 | 143 | 1.6 | 3.2 | 0.00 | 0.00 | 0.00 | 31 | 1015.2 |
| 20260508195401 | 22 | 173 | 3.2 | 4.8 | 0.00 | 0.00 | 0.00 | 30 | 1015.2 |
| 20260508194857 | 22 | 170 | 1.6 | 3.2 | 0.00 | 0.00 | 0.00 | 31 | 1015.3 |
| 20260508194354 | 22 | 170 | 3.2 | 4.8 | 0.00 | 0.00 | 0.00 | 30 | 1015.5 |
| 20260508193852 | 21 | 255 | 3.2 | 6.4 | 0.00 | 0.00 | 0.00 | 33 | 1015.4 |
| 20260508193348 | 22 | 175 | 3.2 | 3.2 | 0.00 | 0.00 | 0.00 | 32 | 1015.5 |
| 20260508192844 | 22 | 163 | 3.2 | 3.2 | 0.00 | 0.00 | 0.00 | 31 | 1015.4 |
| 20260508192342 | 22 | 152 | 1.6 | 6.4 | 0.00 | 0.00 | 0.00 | 30 | 1015.7 |
| 20260508191839 | 21 | 153 | 0.0 | 3.2 | 0.00 | 0.00 | 0.00 | 35 | 1015.8 |
| 20260508191336 | 22 | 79 | 6.4 | 9.7 | 0.00 | 0.00 | 0.00 | 34 | 1015.9 |
| 20260508190833 | 21 | 91 | 1.6 | 3.2 | 0.00 | 0.00 | 0.00 | 34 | 1015.9 |
| 20260508190329 | 21 | 192 | 3.2 | 3.2 | 0.00 | 0.00 | 0.00 | 33 | 1016.1 |
| 20260508185826 | 21 | 198 | 1.6 | 3.2 | 0.00 | 0.00 | 0.00 | 33 | 1016.1 |
| 20260508185323 | 21 | 191 | 0.0 | 3.2 | 0.00 | 0.00 | 0.00 | 31 | 1016.1 |
| 20260508184820 | 21 | 207 | 3.2 | 4.8 | 0.00 | 0.00 | 0.00 | 30 | 1016.3 |
| 20260508184318 | 21 | 141 | 3.2 | 4.8 | 0.00 | 0.00 | 0.00 | 30 | 1016.4 |
| 20260508183815 | 22 | 150 | 1.6 | 4.8 | 0.00 | 0.00 | 0.00 | 31 | 1016.3 |
| 20260508183311 | 21 | 156 | 3.2 | 6.4 | 0.00 | 0.00 | 0.00 | 33 | 1016.3 |
| 20260508182806 | 21 | 133 | 1.6 | 3.2 | 0.00 | 0.00 | 0.00 | 31 | 1016.4 |
| 20260508182306 | 21 | 206 | 3.2 | 3.2 | 0.00 | 0.00 | 0.00 | 33 | 1016.3 |
| 20260508181754 | 20 | 175 | 0.0 | 3.2 | 0.00 | 0.00 | 0.00 | 32 | 1016.6 |
| 20260508181250 | 21 | 170 | 3.2 | 4.8 | 0.00 | 0.00 | 0.00 | 32 | 1016.8 |
| 20260508180748 | 21 | 178 | 3.2 | 4.8 | 0.00 | 0.00 | 0.00 | 30 | 1016.7 |
| 20260508180244 | 21 | 153 | 4.8 | 6.4 | 0.00 | 0.00 | 0.00 | 32 | 1016.5 |
| 20260508175741 | 21 | 163 | 1.6 | 3.2 | 0.00 | 0.00 | 0.00 | 31 | 1016.9 |
| 20260508175237 | 21 | 186 | 0.0 | 3.2 | 0.00 | 0.00 | 0.00 | 39 | 1016.8 |
| 20260508174735 | 21 | 183 | 1.6 | 6.4 | 0.00 | 0.00 | 0.00 | 31 | 1016.9 |
| 20260508174233 | 21 | 137 | 1.6 | 4.8 | 0.00 | 0.00 | 0.00 | 32 | 1016.9 |
| 20260508173729 | 21 | 197 | 1.6 | 6.4 | 0.00 | 0.00 | 0.00 | 30 | 1016.8 |
| 20260508173225 | 20 | 195 | 1.6 | 3.2 | 0.00 | 0.00 | 0.00 | 30 | 1017.1 |
| 20260508172722 | 21 | 181 | 3.2 | 4.8 | 0.00 | 0.00 | 0.00 | 31 | 1017.2 |
| 20260508172219 | 21 | 113 | 3.2 | 6.4 | 0.00 | 0.00 | 0.00 | 32 | 1017.1 |
| 20260508171715 | 21 | 150 | 3.2 | 4.8 | 0.00 | 0.00 | 0.00 | 30 | 1017.4 |
| 20260508171211 | 20 | 156 | 1.6 | 3.2 | 0.00 | 0.00 | 0.00 | 33 | 1017.3 |
| 20260508170709 | 20 | 158 | 4.8 | 6.4 | 0.00 | 0.00 | 0.00 | 30 | 1017.5 |
| 20260508170206 | 20 | 134 | 1.6 | 12.9 | 0.00 | 0.00 | 0.00 | 34 | 1017.5 |
| 20260508165703 | 20 | 112 | 3.2 | 4.8 | 0.00 | 0.00 | 0.00 | 34 | 1017.9 |
| 20260508165200 | 20 | 199 | 4.8 | 9.7 | 0.00 | 0.00 | 0.00 | 30 | 1017.7 |
| 20260508164656 | 20 | 149 | 4.8 | 4.8 | 0.00 | 0.00 | 0.00 | 33 | 1017.6 |
| 20260508164153 | 20 | 104 | 0.0 | 1.6 | 0.00 | 0.00 | 0.00 | 35 | 1017.9 |
| 20260508163651 | 20 | 139 | 1.6 | 3.2 | 0.00 | 0.00 | 0.00 | 30 | 1017.9 |
| 20260508163148 | 20 | 233 | 1.6 | 4.8 | 0.00 | 0.00 | 0.00 | 35 | 1017.9 |
| 20260508162643 | 20 | 167 | 0.0 | 1.6 | 0.00 | 0.00 | 0.00 | 33 | 1018.1 |
| 20260508162141 | 20 | 174 | 0.0 | 3.2 | 0.00 | 0.00 | 0.00 | 34 | 1018.1 |
| 20260508161638 | 20 | 161 | 0.0 | 3.2 | 0.00 | 0.00 | 0.00 | 36 | 1018.2 |
| 20260508161135 | 20 | 156 | 1.6 | 3.2 | 0.00 | 0.00 | 0.00 | 34 | 1018.5 |
| 20260508160634 | 19 | 152 | 0.0 | 3.2 | 0.00 | 0.00 | 0.00 | 33 | 1018.4 |
| 20260508160131 | 20 | 147 | 0.0 | 1.6 | 0.00 | 0.00 | 0.00 | 31 | 1018.5 |
| 20260508155628 | 20 | 135 | 0.0 | 3.2 | 0.00 | 0.00 | 0.00 | 39 | 1018.6 |
| 20260508155124 | 18 | 152 | 0.0 | 3.2 | 0.00 | 0.00 | 0.00 | 38 | 1018.6 |
| 20260508154621 | 18 | 60 | 3.2 | 4.8 | 0.00 | 0.00 | 0.00 | 38 | 1018.7 |
| 20260508154118 | 18 | 140 | 0.0 | 1.6 | 0.00 | 0.00 | 0.00 | 41 | 1018.7 |
| 20260508153615 | 18 | 172 | 0.0 | 3.2 | 0.00 | 0.00 | 0.00 | 41 | 1018.8 |
| 20260508153112 | 17 | 151 | 1.6 | 3.2 | 0.00 | 0.00 | 0.00 | 40 | 1018.7 |
| 20260508152609 | 17 | 20 | 6.4 | 9.7 | 0.00 | 0.00 | 0.00 | 36 | 1018.8 |
| 20260508152104 | 18 | 140 | 0.0 | 3.2 | 0.00 | 0.00 | 0.00 | 42 | 1018.9 |
| 20260508151601 | 18 | 174 | 1.6 | 6.4 | 0.00 | 0.00 | 0.00 | 36 | 1018.9 |
| 20260508151058 | 17 | 157 | 0.0 | 1.6 | 0.00 | 0.00 | 0.00 | 38 | 1019.0 |
| 20260508150555 | 17 | 149 | 0.0 | 3.2 | 0.00 | 0.00 | 0.00 | 40 | 1019.0 |
| 20260508150050 | 18 | 151 | 1.6 | 3.2 | 0.00 | 0.00 | 0.00 | 46 | 1018.8 |
| 20260508145542 | 17 | 129 | 0.0 | 1.6 | 0.00 | 0.00 | 0.00 | 42 | 1019.1 |
| 20260508145038 | 17 | 193 | 1.6 | 3.2 | 0.00 | 0.00 | 0.00 | 42 | 1018.8 |
| 20260508144536 | 17 | 217 | 0.0 | 4.8 | 0.00 | 0.00 | 0.00 | 51 | 1018.8 |
| 20260508144034 | 16 | 135 | 1.6 | 3.2 | 0.00 | 0.00 | 0.00 | 45 | 1018.9 |
| 20260508143531 | 17 | 158 | 1.6 | 3.2 | 0.00 | 0.00 | 0.00 | 51 | 1018.8 |
| 20260508143027 | 17 | 145 | 1.6 | 3.2 | 0.00 | 0.00 | 0.00 | 45 | 1018.8 |
| 20260508142524 | 16 | 141 | 0.0 | 1.6 | 0.00 | 0.00 | 0.00 | 46 | 1018.7 |
| 20260508142021 | 17 | 185 | 0.0 | 3.2 | 0.00 | 0.00 | 0.00 | 48 | 1018.8 |
| 20260508141517 | 17 | 180 | 0.0 | 1.6 | 0.00 | 0.00 | 0.00 | 48 | 1018.7 |
| 20260508141015 | 16 | 115 | 1.6 | 3.2 | 0.00 | 0.00 | 0.00 | 49 | 1018.6 |
| 20260508140512 | 16 | 146 | 1.6 | 3.2 | 0.00 | 0.00 | 0.00 | 49 | 1019.0 |
| 20260508140008 | 16 | 20 | 4.8 | 4.8 | 0.00 | 0.00 | 0.00 | 52 | 1018.8 |
| 20260508135504 | 16 | 293 | 0.0 | 1.6 | 0.00 | 0.00 | 0.00 | 53 | 1019.1 |
| 20260508135001 | 16 | 153 | 1.6 | 1.6 | 0.00 | 0.00 | 0.00 | 53 | 1018.9 |
| 20260508134457 | 16 | 112 | 1.6 | 1.6 | 0.00 | 0.00 | 0.00 | 53 | 1019.0 |
| 20260508133954 | 15 | 142 | 1.6 | 1.6 | 0.00 | 0.00 | 0.00 | 55 | 1019.1 |
| 20260508133451 | 15 | 107 | 1.6 | 1.6 | 0.00 | 0.00 | 0.00 | 54 | 1018.9 |
| 20260508132948 | 15 | 107 | 1.6 | 1.6 | 0.00 | 0.00 | 0.00 | 54 | 1018.9 |
| 20260508132446 | 15 | 154 | 0.0 | 0.0 | 0.00 | 0.00 | 0.00 | 61 | 1018.8 |
| 20260508131943 | 15 | 320 | 6.4 | 9.7 | 0.00 | 0.00 | 0.00 | 61 | 1018.9 |
| 20260508131438 | 15 | 120 | 1.6 | 1.6 | 0.00 | 0.00 | 0.00 | 62 | 1019.0 |
| 20260508130935 | 15 | 192 | 3.2 | 4.8 | 0.00 | 0.00 | 0.00 | 63 | 1019.0 |
| 20260508130432 | 14 | 36 | 3.2 | 4.8 | 0.00 | 0.00 | 0.00 | 66 | 1019.0 |
| 20260508125927 | 14 | 93 | 1.6 | 1.6 | 0.00 | 0.00 | 0.00 | 67 | 1019.0 |
| 20260508125424 | 13 | 109 | 3.2 | 3.2 | 0.00 | 0.00 | 0.00 | 69 | 1018.8 |
| 20260508124922 | 13 | 109 | 3.2 | 3.2 | 0.00 | 0.00 | 0.00 | 69 | 1018.7 |
| 20260508124420 | 13 | 109 | 3.2 | 3.2 | 0.00 | 0.00 | 0.00 | 69 | 1018.9 |
| 20260508123917 | 13 | 109 | 3.2 | 3.2 | 0.00 | 0.00 | 0.00 | 69 | 1018.8 |
| 20260508123416 | 13 | 14 | 1.6 | 1.6 | 0.00 | 0.00 | 0.00 | 72 | 1018.6 |
| 20260508122911 | 13 | 3 | 6.4 | 6.4 | 0.00 | 0.00 | 0.00 | 74 | 1018.7 |
| 20260508122409 | 12 | 51 | 3.2 | 3.2 | 0.00 | 0.00 | 0.00 | 75 | 1018.6 |
| 20260508121906 | 10 | 92 | 0.0 | 1.6 | 0.00 | 0.00 | 0.00 | 99 | 1018.5 |
| 20260508121404 | 10 | 92 | 0.0 | 1.6 | 0.00 | 0.00 | 0.00 | 99 | 1018.4 |
| 20260508120901 | 10 | 92 | 0.0 | 1.6 | 0.00 | 0.00 | 0.00 | 99 | 1018.3 |
| 20260508120359 | 10 | 224 | 1.6 | 1.6 | 0.00 | 0.00 | 0.00 | 99 | 1018.2 |
| 20260508115856 | 9 | 100 | 1.6 | 3.2 | 0.00 | 0.00 | 0.00 | 99 | 1018.1 |
| 20260508115354 | 8 | 99 | 0.0 | 3.2 | 0.00 | 0.00 | 0.00 | 99 | 1018.1 |
| 20260508114850 | 8 | 184 | 0.0 | 1.6 | 0.00 | 0.00 | 0.00 | 99 | 1017.9 |
| 20260508114347 | 8 | 144 | 0.0 | 0.0 | 0.00 | 0.00 | 0.00 | 99 | 1018.0 |
| 20260508113844 | 7 | 221 | 0.0 | 1.6 | 0.00 | 0.00 | 0.00 | 99 | 1017.7 |
| 20260508113342 | 7 | 155 | 0.0 | 1.6 | 0.00 | 0.00 | 0.00 | 99 | 1017.9 |
| 20260508112838 | 7 | 270 | 0.0 | 1.6 | 0.00 | 0.00 | 0.00 | 99 | 1017.8 |
| 20260508112336 | 7 | 339 | 1.6 | 3.2 | 0.00 | 0.00 | 0.00 | 99 | 1017.7 |
| 20260508111831 | 7 | 162 | 0.0 | 0.0 | 0.00 | 0.00 | 0.00 | 99 | 1017.5 |
| 20260508111323 | 7 | 151 | 0.0 | 0.0 | 0.00 | 0.00 | 0.00 | 99 | 1017.4 |
| 20260508110820 | 6 | 153 | 0.0 | 0.0 | 0.00 | 0.00 | 0.00 | 99 | 1017.6 |
| 20260508110318 | 6 | 149 | 0.0 | 0.0 | 0.00 | 0.00 | 0.00 | 99 | 1017.5 |
| 20260508105817 | 6 | 155 | 0.0 | 0.0 | 0.00 | 0.00 | 0.00 | 99 | 1017.3 |
| 20260508105314 | 6 | 154 | 0.0 | 0.0 | 0.00 | 0.00 | 0.00 | 99 | 1017.1 |
| 20260508104811 | 6 | 153 | 0.0 | 0.0 | 0.00 | 0.00 | 0.00 | 99 | 1017.1 |
| 20260508104308 | 6 | 153 | 0.0 | 0.0 | 0.00 | 0.00 | 0.00 | 99 | 1017.0 |
| 20260508103805 | 6 | 152 | 0.0 | 0.0 | 0.00 | 0.00 | 0.00 | 99 | 1017.1 |
| 20260508103302 | 6 | 148 | 0.0 | 0.0 | 0.00 | 0.00 | 0.00 | 99 | 1016.9 |
| 20260508102800 | 6 | 156 | 0.0 | 0.0 | 0.00 | 0.00 | 0.00 | 99 | 1016.8 |
| 20260508102258 | 6 | 154 | 0.0 | 0.0 | 0.00 | 0.00 | 0.00 | 99 | 1016.8 |
| 20260508101755 | 6 | 154 | 0.0 | 0.0 | 0.00 | 0.00 | 0.00 | 99 | 1016.8 |
| 20260508101252 | 6 | 155 | 0.0 | 0.0 | 0.00 | 0.00 | 0.00 | 99 | 1016.6 |
| 20260508100750 | 6 | 152 | 0.0 | 0.0 | 0.00 | 0.00 | 0.00 | 99 | 1016.6 |
| 20260508100248 | 6 | 129 | 0.0 | 0.0 | 0.00 | 0.00 | 0.00 | 99 | 1016.6 |
| 20260508095743 | 6 | 119 | 0.0 | 0.0 | 0.00 | 0.00 | 0.00 | 99 | 1016.4 |
| 20260508095241 | 6 | 119 | 0.0 | 0.0 | 0.00 | 0.00 | 0.00 | 99 | 1016.3 |
| 20260508094738 | 6 | 124 | 0.0 | 0.0 | 0.00 | 0.00 | 0.00 | 99 | 1016.3 |
| 20260508094235 | 6 | 131 | 0.0 | 0.0 | 0.00 | 0.00 | 0.00 | 99 | 1016.2 |
| 20260508093732 | 7 | 132 | 0.0 | 0.0 | 0.00 | 0.00 | 0.00 | 99 | 1016.3 |
| 20260508093230 | 7 | 119 | 0.0 | 1.6 | 0.00 | 0.00 | 0.00 | 99 | 1015.9 |
| 20260508092726 | 7 | 120 | 0.0 | 1.6 | 0.00 | 0.00 | 0.00 | 99 | 1016.1 |
| 20260508092225 | 7 | 120 | 0.0 | 0.0 | 0.00 | 0.00 | 0.00 | 99 | 1016.0 |
| 20260508091722 | 7 | 131 | 0.0 | 0.0 | 0.00 | 0.00 | 0.00 | 99 | 1016.0 |
| 20260508091219 | 7 | 133 | 0.0 | 0.0 | 0.00 | 0.00 | 0.00 | 99 | 1016.0 |
| 20260508090717 | 6 | 113 | 0.0 | 0.0 | 0.00 | 0.00 | 0.00 | 99 | 1015.7 |
| 20260508090214 | 6 | 115 | 0.0 | 0.0 | 0.00 | 0.00 | 0.00 | 99 | 1015.9 |
| 20260508085710 | 7 | 121 | 0.0 | 0.0 | 0.00 | 0.00 | 0.00 | 99 | 1016.0 |
| 20260508085208 | 7 | 122 | 0.0 | 0.0 | 0.00 | 0.00 | 0.00 | 99 | 1015.9 |
| 20260508084703 | 7 | 134 | 0.0 | 0.0 | 0.00 | 0.00 | 0.00 | 99 | 1015.6 |
| 20260508084201 | 7 | 110 | 0.0 | 0.0 | 0.00 | 0.00 | 0.00 | 99 | 1015.6 |
| 20260508083658 | 6 | 122 | 0.0 | 0.0 | 0.00 | 0.00 | 0.00 | 99 | 1015.8 |
| 20260508083156 | 6 | 129 | 0.0 | 0.0 | 0.00 | 0.00 | 0.00 | 99 | 1015.6 |
| 20260508082650 | 7 | 123 | 0.0 | 0.0 | 0.00 | 0.00 | 0.00 | 99 | 1015.5 |
| 20260508082148 | 7 | 115 | 0.0 | 0.0 | 0.00 | 0.00 | 0.00 | 99 | 1015.4 |
| 20260508081645 | 7 | 121 | 0.0 | 0.0 | 0.00 | 0.00 | 0.00 | 99 | 1015.3 |
| 20260508081141 | 7 | 118 | 0.0 | 0.0 | 0.00 | 0.00 | 0.00 | 99 | 1015.2 |
| 20260508080638 | 7 | 121 | 0.0 | 0.0 | 0.00 | 0.00 | 0.00 | 99 | 1015.4 |
| 20260508080137 | 7 | 118 | 0.0 | 0.0 | 0.00 | 0.00 | 0.00 | 99 | 1015.5 |
| 20260508075628 | 7 | 122 | 0.0 | 0.0 | 0.00 | 0.00 | 0.00 | 99 | 1015.4 |
| 20260508075124 | 7 | 124 | 0.0 | 0.0 | 0.00 | 0.00 | 0.00 | 99 | 1015.4 |
| 20260508074622 | 7 | 134 | 0.0 | 0.0 | 0.00 | 0.00 | 0.00 | 99 | 1015.2 |
| 20260508074119 | 7 | 128 | 0.0 | 0.0 | 0.00 | 0.00 | 0.00 | 99 | 1015.3 |
| 20260508073616 | 7 | 131 | 0.0 | 0.0 | 0.00 | 0.00 | 0.00 | 99 | 1015.1 |
| 20260508073114 | 7 | 125 | 0.0 | 0.0 | 0.00 | 0.00 | 0.00 | 99 | 1015.3 |
| 20260508072609 | 7 | 131 | 0.0 | 0.0 | 0.00 | 0.00 | 0.00 | 99 | 1015.2 |
| 20260508072107 | 7 | 129 | 0.0 | 0.0 | 0.00 | 0.00 | 0.00 | 99 | 1015.1 |